This is the latest recevied weather packets stored in our database for station/object DC9VQ-13. If no packets are shown the sender has not sent any weather packets the latest 10 day(s).
| Time | Temp. | Humidity | Pressure | Rain* | Wind** | Luminosity | Snow |
|---|---|---|---|---|---|---|---|
| 1777720826 | 22.22° C | 43% | 1020.6 hPa | 0 mm | - | - | - |
| 1777720224 | 22.22° C | 43% | 1020.7 hPa | 0 mm | - | - | - |
| 1777719622 | 22.22° C | 44% | 1020.8 hPa | 0 mm | - | - | - |
| 1777719020 | 21.67° C | 42% | 1020.9 hPa | 0 mm | - | - | - |
| 1777718419 | 21.67° C | 46% | 1021.1 hPa | 0 mm | - | - | - |
| 1777717816 | 21.11° C | 43% | 1021.2 hPa | 0 mm | - | - | - |
| 1777717215 | 21.11° C | 45% | 1021.3 hPa | 0 mm | - | - | - |
| 1777716614 | 20.56° C | 48% | 1021.4 hPa | 0 mm | - | - | - |
| 1777716011 | 20.56° C | 47% | 1021.4 hPa | 0 mm | - | - | - |
| 1777715410 | 20° C | 45% | 1021.6 hPa | 0 mm | - | - | - |
| 1777714807 | 20° C | 50% | 1021.8 hPa | 0 mm | - | - | - |
| 1777714204 | 19.44° C | 50% | 1021.9 hPa | 0 mm | - | - | - |
| 1777713303 | 18.89° C | 53% | 1021.9 hPa | 0 mm | - | - | - |
| 1777713000 | 18.33° C | 54% | 1022 hPa | 0 mm | - | - | - |
| 1777712098 | 17.78° C | 55% | 1022 hPa | 0 mm | - | - | - |
| 1777711496 | 16.67° C | 53% | 1022.1 hPa | 0 mm | - | - | - |
| 1777710895 | 16.11° C | 58% | 1022.1 hPa | 0 mm | - | - | - |
| 1777710291 | 15.56° C | 60% | 1022.2 hPa | 0 mm | - | - | - |
| 1777709693 | 15.56° C | 61% | 1022.3 hPa | 0 mm | - | - | - |
| 1777709087 | 15° C | 63% | 1022.3 hPa | 0 mm | - | - | - |
| 1777708486 | 14.44° C | 63% | 1022.3 hPa | 0 mm | - | - | - |
| 1777707883 | 13.89° C | 65% | 1022.4 hPa | 0 mm | - | - | - |
| 1777707282 | 13.33° C | 67% | 1022.4 hPa | 0 mm | - | - | - |
| 1777706679 | 12.78° C | 69% | 1022.4 hPa | 0 mm | - | - | - |
| 1777706079 | 12.22° C | 72% | 1022.4 hPa | 0 mm | - | - | - |
* Rain latest hour (hover to see other rain measurements)
** Current wind speed in m/s (hover to see current wind gust speed)